STARLINK-11396, 62015

Orbit data source: Space-Track

STARLINK-11396, 62015 is a payload satellite owned by SpaceX/Seattle (US) in LEO that was launched on Mon, 18 Nov 2024 UTC via an FALCON 9 launch vehicle from the Air Force Western Test Range (AFWTR). Payload-class satellites include a variety of spacecraft equipped with specific instruments for various scientific and technological missions. These include communications satellites like Starlink; space stations such as the ISS; scientific satellites like the Hubble; Earth observation satellites from companies like Planet Labs, Umbra, and HawkEye 360; GPS; miniature CubeSats for education and research; and military/defense satellites.

Loading next visibility...
Identifier
62015, 2024-213H
Orbit
LEO
Last TLE update
1 day ago
Origin
Manufacturer
SpaceX/Seattle
Mission
Operational Commercial Communications
Bus & Motor
STARLINK V2M, Unknown motor
Mass
730 kg wet, ~700 kg dry
Launch date (UTC)
2024-11-18 (6 months ago)
Launch vehicle
FALCON 9
Launch site
Air Force Western Test Range (AFWTR)
Object type
Payload
Rocket body
Debris
Shape & HBR
Box + 2 Pan, 29 m
Radar Cross Section
36.964 m², Large (>1 m²)

Expand to show TLE details & history

TLE from 1 day ago
0 STARLINK-11396
1 62015U 24213H   25128.23842337 -.00000243  00000-0  28555-5 0  9996
2 62015  53.1587 106.7964 0001439  82.4303 277.6878 15.69713077 26947
Epoch: 2025-05-08T05:43Z
Definitive object data (Epoch: 2025-05-08T05:43:19.779Z)
Latitude
-0.00003°
Longitude
154.65218°
Altitude
360.503 km
Speed
7.694 km/s
True Right ascension
07h 07m 11s
True Declination
0° 00' 00"
Sunlit
Object was in daylight at TLE epoch
Visualization TLE readout
Latitude
-34.20791°
Longitude
118.92474°
Altitude
371.144 km
Speed
7.686 km/s
Apparent Right ascension
04h 14m 05s
Apparent Declination
-37° 04' 31"
Sunlit
Object is in daylight
Visualization observer readout
Local Sidereal Time
15:39:38
Azimuth
290.127° WNW
Elevation
-82.689°
Doppler factor
1
Orbital elements
Apogee altitude
360.948 km
Perigee altitude
359.009 km
Semi-major axis
6,738.116 km
Eccentricity
0.0001439
Inclination
53.1587°
RAAN
106.7964°
Arg. of periapsis
82.4303°
True anomaly
277.67146°
Mean anomaly
277.6878°
Eccentric anomaly
277.67963°
Mean motion
3.92406 °/min
BSTAR
0.0000028555
Orbital period
91.74 mins
Loading maneuver chart data...
Loading SW <> Apogee altitude chart data...
Loading historical data...
Loading historical data...
Loading historical data...
Loading historical data...
Loading historical data...
Loading historical data...
Loading historical data...

STARLINK-11396 Visibility forecast

Observer location: undefined°, undefined°

Span
Click to sort rows by Start time (UTC) header in descending order
Start Az.
Max El. time (UTC)
Max El. Az.
Max El.
End time (UTC)
End Az.
4 mins2025-05-09 08:12:38.030Z300.572° NW2025-05-09 08:14:38.030Z229.143° WSW41.344°2025-05-09 08:16:38.030Z145.282° SSE
4 mins2025-05-10 07:06:38.030Z334.176° NNW2025-05-10 07:08:38.030Z56.998° ENE31.704°2025-05-10 07:10:38.030Z104.57° ESE
|